Location: ??
(34.9170°N, 135.5016°E)
Time: 19:58:43
(UTC+00:00)

Vanguard 2 - Visible Passes

Search period start: 04 March 2021 00:00
Search period end: 14 March 2021 00:00
Orbit: 552 x 2938 km, 32.9° (Epoch: 04 March)

Date Brightness Start Highest point End Pass type
(mag) Time Alt. Az. Time Alt. Az. Time Alt. Az.
04 Mar 10.9 16:29:13 29° ESE 16:29:13 29° ESE 16:37:55 10° E visible
04 Mar 9.9 18:30:36 57° SW 18:34:24 71° SSE 18:52:16 10° E visible
04 Mar 10.4 20:31:59 13° W 20:47:24 84° S 21:05:06 10° E visible
05 Mar 10.6 16:45:48 38° ESE 16:45:48 38° ESE 16:56:24 10° E visible
05 Mar 9.9 18:47:11 51° WSW 18:52:21 77° SSE 19:10:24 10° E visible
05 Mar 10.5 20:49:09 10° W 21:05:32 82° S 21:23:06 10° ESE visible
06 Mar 10.3 17:02:22 47° ESE 17:02:22 47° ESE 17:14:42 10° E visible
06 Mar 10.0 19:03:44 43° WSW 19:10:23 82° S 19:28:33 10° E visible
07 Mar 11.6 15:17:31 11° E 15:17:31 11° E 15:17:51 10° E visible
07 Mar 10.0 17:18:54 58° ESE 17:18:54 58° ESE 17:32:56 10° E visible
07 Mar 10.1 19:20:16 35° W 19:28:28 83° S 19:46:40 10° E visible
08 Mar 11.4 15:34:03 16° E 15:34:03 16° E 15:36:35 10° E visible
08 Mar 9.8 17:35:25 70° SE 17:35:25 70° SE 17:51:07 10° E visible
08 Mar 10.2 19:36:48 28° W 19:46:34 83° S 20:04:47 10° E visible
09 Mar 11.2 15:50:35 21° E 15:50:35 21° E 15:55:02 10° E visible
09 Mar 9.6 17:51:57 78° S 17:52:09 78° SSE 18:09:18 10° E visible
09 Mar 10.2 19:53:20 22° W 20:04:40 81° S 20:22:50 10° ESE visible
10 Mar 10.9 16:07:07 27° E 16:07:07 27° E 16:13:19 10° E visible
10 Mar 9.5 18:08:29 73° SW 18:10:09 82° S 18:27:29 10° E visible
10 Mar 10.3 20:09:52 16° W 20:22:43 76° SSW 20:40:46 10° ESE visible
11 Mar 10.6 16:23:40 34° E 16:23:40 34° E 16:31:32 10° E visible
11 Mar 9.6 18:25:02 62° WSW 18:28:11 83° S 18:45:40 10° E visible
11 Mar 10.4 20:26:25 11° W 20:40:43 70° SSW 20:58:35 10° ESE visible
12 Mar 10.3 16:40:14 42° E 16:40:14 42° E 16:49:43 10° E visible
12 Mar 9.7 18:41:37 51° W 18:46:14 82° S 19:03:48 10° E visible
12 Mar 10.5 20:44:06 10° W 20:58:38 62° SSW 21:16:10 10° SE visible
13 Mar 10.0 16:56:50 51° E 16:56:50 51° E 17:07:54 10° E visible
13 Mar 9.8 18:58:13 41° W 19:04:15 78° S 19:21:52 10° ESE visible
